Location: Boda
(47.1872°N, 9.5454°E)
Time: 16:03:11
(UTC+00:00)

IRS-1C - Pass Details

Date: 14 May 2021
Orbit: 815 x 817 km, 98.9° (Epoch: 15 June)

Event Time Altitude Azimuth Distance (km) Brightness Sun altitude
Rises 02:11:32 0° 17° (NNE) 3,356 8.6 -13.5°
Reaches altitude 10° 02:13:55 10° 20° (NNE) 2,419 7.7 -13.2°
Maximum altitude 02:19:15 65° 102° (ESE) 898 4.5 -12.6°
Drops below altitude 10° 02:24:31 10° 185° (S) 2,401 6.1 -12.0°
Enters shadow 02:24:57 - 185° (S) 2,568 6.3 -11.9°
